Regional Weather Roundup
Issued by NWS Jackson, KY

Home | Current Version | Previous Version | Text Only | Print | Product List | Glossary On
Versions: 1 2 3 4 5 6 7 8 9 10 11 12 13 14 15 16 17 18 19 20 21 22 23 24 25 26 27 28 29 30 31 32 33 34 35 36 37 38 39 40 41 42 43 44 45 46 47 48 49 50
000
ASUS43 KJKL 010511
RWRJKL

EAST KENTUCKY HOURLY WEATHER ROUNDUP
NATIONAL WEATHER SERVICE JACKSON KY
1200 AM EST SUN FEB 01 2015

NOTE: "FAIR" INDICATES FEW OR NO CLOUDS BELOW 12,000 FEET WITH
NO SIGNIFICANT WEATHER AND/OR OBSTRUCTIONS TO VISIBILITY.

* THESE REPORTS ARE NOT UNDER NWS QUALITY CONTROL AND MAY NOT
  REPORT WEATHER SUCH AS PRECIPITATION AND FOG.

KYZ079-080-083-085-087-088-110-112-115-119-120-010600
...EASTERN KENTUCKY...

CITY           SKY/WX    TMP DP  RH WIND       PRES   REMARKS
JACKSON        CLOUDY    37   9  31 CALM      30.22F
LONDON         CLOUDY    38  17  42 W5        30.23R WCI  34
SOMERSET*      CLOUDY    36  21  55 S3        30.24F
MONTICELLO*    CLOUDY    37  25  62 CALM      30.24F
MIDDLESBORO*   CLOUDY    36  26  68 W3        30.24F
HARLAN APT*    CLOUDY    36  18  48 E3        30.23F
HAZARD APT*    CLOUDY    36  18  48 CALM      30.22F
BLACK MTN*       N/A     34   0  23 SW7         N/A  WCI  28
PIKEVILLE APT* CLOUDY    37  12  35 CALM      30.23S
BIG SANDY*     MOCLDY    34  19  55 CALM      30.24F
MOREHEAD APT*  CLOUDY    36  19  51 S7        30.26R WCI  30
$$

KYZ035-036-041-042-044-050-067-078-099-010600
...CENTRAL KENTUCKY...

CITY           SKY/WX    TMP DP  RH WIND       PRES   REMARKS
MT STERLING*   CLOUDY    34  25  69 SE5       30.23F WCI  30
FLEMING/MASON* CLOUDY    33  24  69 SW5       30.24F WCI  29
DANVILLE*      CLOUDY    34  25  69 CALM      30.25S
RICHMOND*      CLOUDY    36  19  51 CALM      30.23R
LEXINGTON      CLOUDY    34  23  64 S3        30.23F
FRANKFORT      CLOUDY    34  21  59 SE5       30.22F WCI  30
$$

KYZ091>093-OHZ055-061-077-WVZ005-015-034-035-042-010600
...SOUTHERN OHIO/WEST VIRGINIA...

CITY           SKY/WX    TMP DP  RH WIND       PRES   REMARKS
COVINGTON      LGT RAIN  34  28  79 CALM      30.21F
COLUMBUS       FLURRIES  33  23  66 SW10      30.21S WCI  25
DAYTON         LGT SNOW  33  30  88 SW9       30.21S FOG     WCI  25
WILMINGTON     CLOUDY    33  26  75 SW8       30.21F WCI  26
HUNTINGTON     CLOUDY    31  21  66 CALM      30.25F
CHARLESTON     CLOUDY    30  21  69 CALM      30.25F
PINEVILLE*     CLOUDY    31  27  85 MISG      30.29F
BECKLEY        CLOUDY    31  11  43 SW6       30.21S WCI  25
BLUEFIELD      CLOUDY    33  12  41 W6        30.21S WCI  28
$$

VAZ002-007-008-TNZ017-027-036-066-071-010600
...SOUTHWEST VIRGINIA/EAST TENNESSEE...

CITY           SKY/WX    TMP DP  RH WIND       PRES   REMARKS
WISE*          CLOUDY    32  18  55 CALM      30.22S
JONESVILLE*    CLOUDY    34  25  69 CALM      30.27F
ABINGDON*      CLOUDY    33  18  55 CALM      30.24F
BRISTOL        CLOUDY    33  22  63 CALM      30.26S
KNOXVILLE      CLOUDY    38  22  52 W3        30.26S
OAK RIDGE      CLOUDY    40  21  46 CALM      30.28R
CROSSVILLE     CLOUDY    38  13  35 SE3       30.21F
NASHVILLE      CLOUDY    41  21  44 SE7       30.19F
$$

...KEY TO REMARKS...
VSB - VISIBILITY IN MILES
WCI - WIND CHILL INDEX
HX  - HEAT INDEX

$$


USA.gov is the U.S. government's official web portal to all federal, state and local government web resources and services.